Location: Flotzheim
(48.8375°N, 10.8136°E)
Time: 17:33:44
(UTC+00:00)

ADEOS Rocket - Pass Details

Date: 23 January 2021
Orbit: 858 x 1307 km, 98.7° (Epoch: 28 February)

Event Time Altitude Azimuth Distance (km) Brightness Sun altitude
Rises 16:48:10 0° 9° (N) 3,756 5.8 -8.0°
Reaches altitude 10° 16:50:57 10° 1° (N) 2,737 5.1 -8.4°
Maximum altitude 16:56:19 35° 299° (WNW) 1,457 4.4 -9.3°
Drops below altitude 10° 17:01:19 10° 235° (SW) 2,537 6.6 -10.0°
Sets 17:03:49 0° 227° (SW) 3,445 7.2 -10.4°
